Time,TemperatureF,DewpointF,PressureIn,WindDirection,WindDirectionDegrees,WindSpeedMPH,WindSpeedGustMPH,Humidity,HourlyPrecipIn,Conditions,Clouds,dailyrainin,SoftwareType,DateUTC
2013-09-15 00:02:00,58.2,54.0,29.85,East,82,0.0,1.0,86,0.25,,OVC048,0.00,VWS V14.01,2013-09-15 05:02:00,
2013-09-15 00:07:00,57.9,54.4,29.86,East,82,0.0,1.0,88,0.25,,OVC048,0.00,VWS V14.01,2013-09-15 05:07:00,
2013-09-15 00:12:00,57.6,54.4,29.86,North,9,0.0,1.0,89,0.25,,OVC048,0.00,VWS V14.01,2013-09-15 05:12:00,
2013-09-15 00:17:00,57.4,54.5,29.87,North,9,2.0,5.0,90,0.25,,OVC048,0.00,VWS V14.01,2013-09-15 05:17:00,
2013-09-15 00:22:00,57.2,54.3,29.87,NNE,13,0.0,5.0,90,0.25,,OVC048,0.00,VWS V14.01,2013-09-15 05:22:00,
2013-09-15 00:27:00,57.2,54.6,29.86,West,281,1.0,5.0,91,0.25,,OVC048,0.00,VWS V14.01,2013-09-15 05:27:00,
2013-09-15 00:32:00,57.5,54.0,29.86,ENE,72,1.0,5.0,88,0.01,,OVC048,0.00,VWS V14.01,2013-09-15 05:32:00,
2013-09-15 00:37:00,57.8,54.3,29.86,ENE,75,1.0,5.0,88,0.01,,OVC048,0.00,VWS V14.01,2013-09-15 05:37:00,
2013-09-15 00:42:00,57.8,54.3,29.86,ESE,103,5.0,10.0,88,0.01,,OVC048,0.00,VWS V14.01,2013-09-15 05:42:00,
2013-09-15 00:47:00,57.6,54.4,29.85,East,101,4.0,10.0,89,0.11,,OVC048,0.10,VWS V14.01,2013-09-15 05:47:00,
2013-09-15 00:52:00,57.5,54.3,29.85,ENE,74,3.0,10.0,89,0.15,,OVC048,0.14,VWS V14.01,2013-09-15 05:52:00,
2013-09-15 00:57:00,57.3,54.4,29.85,ENE,63,1.0,10.0,90,0.15,,-RA,0.14,VWS V14.01,2013-09-15 05:57:00,
2013-09-15 01:02:00,57.2,54.3,29.84,ESE,122,5.0,6.0,90,0.14,,-RA,0.14,VWS V14.01,2013-09-15 06:02:00,
2013-09-15 01:07:00,57.7,54.2,29.84,ENE,68,1.0,8.0,88,0.14,,-RA,0.14,VWS V14.01,2013-09-15 06:07:00,
2013-09-15 01:12:00,57.9,54.1,29.84,SE,126,7.0,10.0,87,0.14,,-RA,0.14,VWS V14.01,2013-09-15 06:12:00,
2013-09-15 01:17:00,58.1,54.3,29.84,ESE,107,6.0,10.0,87,0.14,,-RA,0.14,VWS V14.01,2013-09-15 06:17:00,
2013-09-15 01:22:00,57.9,54.4,29.84,East,88,2.0,10.0,88,0.14,,-RA,0.14,VWS V14.01,2013-09-15 06:22:00,
2013-09-15 01:27:00,57.5,54.6,29.84,East,100,4.0,10.0,90,0.14,,-RA,0.14,VWS V14.01,2013-09-15 06:27:00,
2013-09-15 01:32:00,57.4,54.8,29.84,East,82,2.0,6.0,91,0.14,,-RA,0.14,VWS V14.01,2013-09-15 06:32:00,
2013-09-15 01:37:00,57.3,54.7,29.84,ENE,77,7.0,9.0,91,0.14,,-RA,0.14,VWS V14.01,2013-09-15 06:37:00,
2013-09-15 01:42:00,57.3,54.7,29.84,ESE,108,5.0,9.0,91,0.14,,-RA,0.14,VWS V14.01,2013-09-15 06:42:00,
2013-09-15 01:47:00,57.2,54.6,29.84,ESE,116,5.0,9.0,91,0.14,,-RA,0.14,VWS V14.01,2013-09-15 06:47:00,
2013-09-15 01:52:00,57.1,54.5,29.84,East,94,3.0,9.0,91,0.14,,-RA,0.14,VWS V14.01,2013-09-15 06:52:00,
2013-09-15 01:57:00,57.1,54.5,29.84,ESE,107,9.0,9.0,91,0.14,,-RA,0.14,VWS V14.01,2013-09-15 06:57:00,
2013-09-15 02:02:00,57.1,54.5,29.83,ESE,105,6.0,10.0,91,0.00,,OVC050,0.14,VWS V14.01,2013-09-15 07:02:00,
2013-09-15 02:07:00,57.1,54.5,29.83,East,101,10.0,10.0,91,0.00,,OVC050,0.14,VWS V14.01,2013-09-15 07:07:00,
2013-09-15 02:12:00,57.2,54.6,29.83,East,100,8.0,11.0,91,0.00,,OVC050,0.14,VWS V14.01,2013-09-15 07:12:00,
2013-09-15 02:17:00,57.4,54.5,29.83,ESE,107,7.0,12.0,90,0.00,,OVC050,0.14,VWS V14.01,2013-09-15 07:17:00,
2013-09-15 02:22:00,57.6,54.1,29.83,East,101,8.0,12.0,88,0.00,,OVC050,0.14,VWS V14.01,2013-09-15 07:22:00,
2013-09-15 02:27:00,57.7,54.2,29.83,ESE,104,6.0,12.0,88,0.00,,OVC050,0.14,VWS V14.01,2013-09-15 07:27:00,
2013-09-15 02:32:00,57.8,54.3,29.83,East,101,8.0,11.0,88,0.00,,OVC050,0.14,VWS V14.01,2013-09-15 07:32:00,
2013-09-15 02:37:00,57.8,54.3,29.83,ESE,111,8.0,12.0,88,0.00,,OVC050,0.14,VWS V14.01,2013-09-15 07:37:00,
2013-09-15 02:42:00,57.8,54.3,29.83,ESE,113,8.0,12.0,88,0.00,,OVC050,0.14,VWS V14.01,2013-09-15 07:42:00,
2013-09-15 02:47:00,57.8,54.6,29.83,ESE,116,6.0,12.0,89,0.00,,OVC050,0.14,VWS V14.01,2013-09-15 07:47:00,
2013-09-15 02:52:00,57.7,54.5,29.82,SE,135,7.0,12.0,89,0.00,,OVC050,0.14,VWS V14.01,2013-09-15 07:52:00,
2013-09-15 02:57:00,57.6,54.4,29.82,ESE,116,8.0,12.0,89,0.00,,OVC050,0.14,VWS V14.01,2013-09-15 07:57:00,
2013-09-15 03:02:00,57.6,54.4,29.82,SE,135,7.0,11.0,89,0.00,,OVC055,0.14,VWS V14.01,2013-09-15 08:02:00,
2013-09-15 03:07:00,57.6,54.4,29.82,ESE,122,10.0,12.0,89,0.00,,OVC055,0.14,VWS V14.01,2013-09-15 08:07:00,
2013-09-15 03:12:00,57.6,54.1,29.82,ESE,121,11.0,12.0,88,0.00,,OVC055,0.14,VWS V14.01,2013-09-15 08:12:00,
2013-09-15 03:17:00,57.6,54.1,29.82,ESE,116,8.0,12.0,88,0.00,,OVC055,0.14,VWS V14.01,2013-09-15 08:17:00,
2013-09-15 03:22:00,57.6,54.4,29.81,ESE,122,8.0,12.0,89,0.00,,OVC055,0.14,VWS V14.01,2013-09-15 08:22:00,
2013-09-15 03:27:00,57.6,54.1,29.81,ESE,112,8.0,13.0,88,0.00,,OVC055,0.14,VWS V14.01,2013-09-15 08:27:00,
2013-09-15 03:32:00,57.6,54.1,29.81,SE,131,9.0,10.0,88,0.00,,OVC055,0.14,VWS V14.01,2013-09-15 08:32:00,
2013-09-15 03:37:00,57.6,53.8,29.81,SE,133,8.0,13.0,87,0.00,,OVC055,0.14,VWS V14.01,2013-09-15 08:37:00,
2013-09-15 03:42:00,57.5,54.0,29.81,SE,136,6.0,13.0,88,0.00,,OVC055,0.14,VWS V14.01,2013-09-15 08:42:00,
2013-09-15 03:47:00,57.5,53.7,29.80,ESE,122,10.0,13.0,87,0.00,,OVC055,0.14,VWS V14.01,2013-09-15 08:47:00,
2013-09-15 03:52:00,57.5,53.7,29.80,SE,129,10.0,14.0,87,0.00,,OVC055,0.14,VWS V14.01,2013-09-15 08:52:00,
2013-09-15 03:57:00,57.4,53.9,29.80,ESE,110,12.0,14.0,88,0.00,,OVC055,0.14,VWS V14.01,2013-09-15 08:57:00,
2013-09-15 04:02:00,57.4,53.9,29.80,SE,142,9.0,12.0,88,0.00,,OVC055,0.14,VWS V14.01,2013-09-15 09:02:00,
2013-09-15 04:07:00,57.3,53.8,29.80,SE,126,10.0,12.0,88,0.00,,OVC055,0.14,VWS V14.01,2013-09-15 09:07:00,
2013-09-15 04:12:00,57.2,53.7,29.80,SE,134,6.0,12.0,88,0.00,,OVC055,0.14,VWS V14.01,2013-09-15 09:12:00,
2013-09-15 04:17:00,57.2,53.7,29.80,SE,141,6.0,12.0,88,0.00,,OVC055,0.14,VWS V14.01,2013-09-15 09:17:00,
2013-09-15 04:22:00,57.2,53.7,29.80,ESE,115,11.0,12.0,88,0.00,,OVC055,0.14,VWS V14.01,2013-09-15 09:22:00,
2013-09-15 04:27:00,57.2,53.7,29.79,SE,142,11.0,13.0,88,0.00,,OVC055,0.14,VWS V14.01,2013-09-15 09:27:00,
2013-09-15 04:32:00,57.2,53.7,29.80,ESE,119,11.0,11.0,88,0.00,,OVC055,0.14,VWS V14.01,2013-09-15 09:32:00,
2013-09-15 04:37:00,57.2,54.0,29.79,SE,131,9.0,13.0,89,0.00,,OVC055,0.14,VWS V14.01,2013-09-15 09:37:00,
2013-09-15 04:42:00,57.1,53.9,29.79,ESE,121,6.0,13.0,89,0.00,,OVC055,0.14,VWS V14.01,2013-09-15 09:42:00,
2013-09-15 04:47:00,57.1,53.9,29.79,East,101,9.0,13.0,89,0.00,,OVC055,0.14,VWS V14.01,2013-09-15 09:47:00,
2013-09-15 04:52:00,57.1,53.9,29.79,SE,134,8.0,13.0,89,0.00,,OVC055,0.14,VWS V14.01,2013-09-15 09:52:00,
2013-09-15 04:57:00,57.1,53.9,29.79,SE,136,9.0,13.0,89,0.00,,OVC070,0.14,VWS V14.01,2013-09-15 09:57:00,
2013-09-15 05:02:00,57.2,54.0,29.79,SE,129,7.0,7.0,89,0.00,,OVC070,0.14,VWS V14.01,2013-09-15 10:02:00,
2013-09-15 05:07:00,57.2,54.0,29.79,SE,132,5.0,9.0,89,0.00,,OVC070,0.14,VWS V14.01,2013-09-15 10:07:00,
2013-09-15 05:12:00,57.2,54.0,29.79,SE,132,5.0,9.0,89,0.00,,OVC070,0.14,VWS V14.01,2013-09-15 10:12:00,
2013-09-15 05:17:00,57.2,54.0,29.79,SE,136,8.0,10.0,89,0.00,,OVC070,0.14,VWS V14.01,2013-09-15 10:17:00,
2013-09-15 05:22:00,57.3,54.1,29.79,SE,129,6.0,10.0,89,0.00,,OVC070,0.14,VWS V14.01,2013-09-15 10:22:00,
2013-09-15 05:27:00,57.3,54.4,29.79,ESE,119,6.0,10.0,90,0.00,,OVC070,0.14,VWS V14.01,2013-09-15 10:27:00,
2013-09-15 05:32:00,57.3,54.1,29.80,SE,132,4.0,6.0,89,0.00,,OVC070,0.14,VWS V14.01,2013-09-15 10:32:00,
2013-09-15 05:37:00,57.3,54.4,29.79,SE,142,4.0,7.0,90,0.03,,OVC070,0.17,VWS V14.01,2013-09-15 10:37:00,
2013-09-15 05:42:00,57.2,54.3,29.80,ESE,122,4.0,8.0,90,0.03,,OVC070,0.17,VWS V14.01,2013-09-15 10:42:00,
2013-09-15 05:47:00,57.2,54.3,29.80,SSE,158,4.0,8.0,90,0.03,,OVC070,0.17,VWS V14.01,2013-09-15 10:47:00,
2013-09-15 05:52:00,57.2,54.6,29.80,East,93,2.0,8.0,91,0.03,,OVC070,0.17,VWS V14.01,2013-09-15 10:52:00,
2013-09-15 05:57:00,57.2,54.6,29.81,SSE,149,3.0,8.0,91,0.03,,OVC070,0.17,VWS V14.01,2013-09-15 10:57:00,
2013-09-15 06:02:00,57.2,54.6,29.81,East,100,0.0,2.0,91,0.03,,OVC039,0.17,VWS V14.01,2013-09-15 11:02:00,
2013-09-15 06:07:00,57.2,54.6,29.81,SE,125,4.0,4.0,91,0.03,,OVC039,0.17,VWS V14.01,2013-09-15 11:07:00,
2013-09-15 06:12:00,57.3,54.7,29.81,SE,128,0.0,4.0,91,0.03,,OVC039,0.17,VWS V14.01,2013-09-15 11:12:00,
2013-09-15 06:17:00,57.3,54.7,29.82,NW,325,0.0,4.0,91,0.03,,OVC039,0.17,VWS V14.01,2013-09-15 11:17:00,
2013-09-15 06:22:00,57.3,54.7,29.82,ESE,111,4.0,5.0,91,0.03,,OVC039,0.17,VWS V14.01,2013-09-15 11:22:00,
2013-09-15 06:27:00,57.3,54.7,29.82,NNE,20,2.0,5.0,91,0.03,,OVC039,0.17,VWS V14.01,2013-09-15 11:27:00,
2013-09-15 06:32:00,57.2,54.9,29.82,NNW,340,0.0,0.0,92,0.03,,OVC039,0.17,VWS V14.01,2013-09-15 11:32:00,
2013-09-15 06:37:00,57.1,55.1,29.82,ESE,120,4.0,4.0,93,0.03,,OVC039,0.17,VWS V14.01,2013-09-15 11:37:00,
2013-09-15 06:42:00,57.0,55.0,29.83,North,356,0.0,4.0,93,0.03,,OVC039,0.17,VWS V14.01,2013-09-15 11:42:00,
2013-09-15 06:47:00,57.0,55.3,29.83,NNE,13,0.0,4.0,94,0.03,,OVC039,0.17,VWS V14.01,2013-09-15 11:47:00,
2013-09-15 06:52:00,57.0,55.3,29.82,NNE,13,0.0,4.0,94,0.03,,OVC039,0.17,VWS V14.01,2013-09-15 11:52:00,
2013-09-15 06:57:00,57.0,55.3,29.82,NNE,13,0.0,4.0,94,0.03,,OVC039,0.17,VWS V14.01,2013-09-15 11:57:00,
2013-09-15 07:02:00,57.0,55.3,29.82,NNE,13,0.0,0.0,94,0.00,,OVC033,0.17,VWS V14.01,2013-09-15 12:02:00,
2013-09-15 07:07:00,57.0,55.3,29.82,East,91,0.0,0.0,94,0.00,,OVC033,0.17,VWS V14.01,2013-09-15 12:07:00,
2013-09-15 07:12:00,56.9,55.2,29.82,East,101,0.0,2.0,94,0.00,,OVC033,0.17,VWS V14.01,2013-09-15 12:12:00,
2013-09-15 07:17:00,56.9,55.2,29.82,East,101,0.0,2.0,94,0.00,,OVC033,0.17,VWS V14.01,2013-09-15 12:17:00,
2013-09-15 07:22:00,56.9,55.2,29.82,East,101,0.0,2.0,94,0.00,,OVC033,0.17,VWS V14.01,2013-09-15 12:22:00,
2013-09-15 07:27:00,57.0,55.3,29.83,East,101,0.0,2.0,94,0.00,,OVC033,0.17,VWS V14.01,2013-09-15 12:27:00,
2013-09-15 07:32:00,57.0,55.3,29.84,East,94,0.0,0.0,94,0.00,,OVC033,0.17,VWS V14.01,2013-09-15 12:32:00,
2013-09-15 07:37:00,57.0,55.6,29.84,NNW,346,0.0,2.0,95,0.00,,OVC033,0.17,VWS V14.01,2013-09-15 12:37:00,
2013-09-15 07:42:00,57.1,55.7,29.84,North,9,0.0,3.0,95,0.01,,OVC033,0.18,VWS V14.01,2013-09-15 12:42:00,
2013-09-15 07:47:00,57.0,55.3,29.86,NNE,15,5.0,6.0,94,0.02,,OVC033,0.19,VWS V14.01,2013-09-15 12:47:00,
2013-09-15 07:52:00,57.0,55.6,29.83,NNW,337,5.0,6.0,95,0.05,, +RA,0.22,VWS V14.01,2013-09-15 12:52:00,
2013-09-15 07:57:00,56.8,55.4,29.84,NE,41,0.0,6.0,95,0.09,, +RA,0.26,VWS V14.01,2013-09-15 12:57:00,
2013-09-15 08:02:00,56.7,55.3,29.85,NNE,19,1.0,3.0,95,0.14,, +RA,0.31,VWS V14.01,2013-09-15 13:02:00,
2013-09-15 08:07:00,56.6,55.2,29.86,NNE,32,1.0,3.0,95,0.15,, +RA,0.32,VWS V14.01,2013-09-15 13:07:00,
2013-09-15 08:12:00,56.5,55.1,29.86,NNW,346,0.0,3.0,95,0.16,, +RA,0.33,VWS V14.01,2013-09-15 13:12:00,
2013-09-15 08:17:00,56.5,55.1,29.87,NNW,335,2.0,3.0,95,0.18,,-RA,0.35,VWS V14.01,2013-09-15 13:17:00,
2013-09-15 08:22:00,56.5,55.4,29.87,NNE,32,1.0,3.0,96,0.18,,-RA,0.35,VWS V14.01,2013-09-15 13:22:00,
2013-09-15 08:27:00,56.4,55.3,29.86,NE,52,0.0,4.0,96,0.20,,-RA,0.37,VWS V14.01,2013-09-15 13:27:00,
2013-09-15 08:32:00,56.3,55.2,29.85,NE,43,0.0,2.0,96,0.22,,RA,0.39,VWS V14.01,2013-09-15 13:32:00,
2013-09-15 08:37:00,56.2,55.1,29.86,ENE,70,1.0,4.0,96,0.22,,RA,0.39,VWS V14.01,2013-09-15 13:37:00,
2013-09-15 08:42:00,56.1,55.0,29.86,North,11,0.0,4.0,96,0.22,,RA,0.39,VWS V14.01,2013-09-15 13:42:00,
2013-09-15 08:47:00,56.1,55.0,29.87,NNW,330,5.0,5.0,96,0.22,,RA,0.39,VWS V14.01,2013-09-15 13:47:00,
2013-09-15 08:52:00,56.2,55.1,29.87,NNE,15,1.0,7.0,96,0.22,,RA,0.39,VWS V14.01,2013-09-15 13:52:00,
2013-09-15 08:57:00,56.2,55.1,29.88,NE,41,0.0,7.0,96,0.22,,RA,0.39,VWS V14.01,2013-09-15 13:57:00,
2013-09-15 09:02:00,56.2,55.1,29.89,NNW,335,0.0,5.0,96,0.09,,-RA,0.39,VWS V14.01,2013-09-15 14:02:00,
2013-09-15 09:07:00,56.2,55.1,29.89,NE,46,0.0,5.0,96,0.09,,-RA,0.39,VWS V14.01,2013-09-15 14:07:00,
2013-09-15 09:12:00,56.3,55.2,29.89,NNE,29,2.0,8.0,96,0.09,,-RA,0.39,VWS V14.01,2013-09-15 14:12:00,
2013-09-15 09:17:00,56.4,55.3,29.89,NNE,26,4.0,10.0,96,0.09,,OVC018,0.39,VWS V14.01,2013-09-15 14:17:00,
2013-09-15 09:22:00,56.5,55.7,29.89,NE,36,1.0,10.0,97,0.09,,OVC018,0.39,VWS V14.01,2013-09-15 14:22:00,
2013-09-15 09:27:00,56.8,56.0,29.90,NNW,346,1.0,10.0,97,0.09,,OVC018,0.39,VWS V14.01,2013-09-15 14:27:00,
2013-09-15 09:32:00,57.1,56.3,29.90,East,84,0.0,3.0,97,0.01,,OVC018,0.39,VWS V14.01,2013-09-15 14:32:00,
2013-09-15 09:37:00,57.2,56.1,29.90,NNW,332,2.0,10.0,96,0.01,,OVC018,0.39,VWS V14.01,2013-09-15 14:37:00,
2013-09-15 09:42:00,57.4,56.3,29.90,NNE,12,3.0,10.0,96,0.01,,OVC018,0.39,VWS V14.01,2013-09-15 14:42:00,
2013-09-15 09:47:00,57.6,56.5,29.90,NE,47,0.0,11.0,96,0.01,,OVC018,0.39,VWS V14.01,2013-09-15 14:47:00,
2013-09-15 09:52:00,57.7,56.3,29.91,NNE,26,0.0,11.0,95,0.02,,OVC018,0.40,VWS V14.01,2013-09-15 14:52:00,
2013-09-15 09:57:00,57.9,56.5,29.91,NE,47,0.0,12.0,95,0.02,,OVC010,0.40,VWS V14.01,2013-09-15 14:57:00,
2013-09-15 10:02:00,58.0,56.6,29.92,ENE,75,3.0,8.0,95,0.01,,OVC010,0.40,VWS V14.01,2013-09-15 15:02:00,
2013-09-15 10:07:00,58.2,56.5,29.92,NNE,26,2.0,9.0,94,0.01,,OVC010,0.40,VWS V14.01,2013-09-15 15:07:00,
2013-09-15 10:12:00,58.6,56.9,29.92,North,8,1.0,10.0,94,0.01,,OVC010,0.40,VWS V14.01,2013-09-15 15:12:00,
2013-09-15 10:17:00,58.8,57.1,29.92,ENE,64,4.0,10.0,94,0.01,,OVC010,0.40,VWS V14.01,2013-09-15 15:17:00,
2013-09-15 10:22:00,59.0,56.7,29.92,NNE,23,2.0,10.0,92,0.01,,OVC010,0.40,VWS V14.01,2013-09-15 15:22:00,
2013-09-15 10:27:00,59.0,56.4,29.92,NE,56,2.0,10.0,91,0.01,,OVC010,0.40,VWS V14.01,2013-09-15 15:27:00,
2013-09-15 10:32:00,59.1,56.5,29.92,NW,316,6.0,6.0,91,0.01,,OVC010,0.40,VWS V14.01,2013-09-15 15:32:00,
2013-09-15 10:37:00,59.4,56.8,29.92,NE,39,2.0,8.0,91,0.01,,OVC010,0.40,VWS V14.01,2013-09-15 15:37:00,
2013-09-15 10:42:00,59.8,57.2,29.92,NE,52,3.0,11.0,91,0.01,,OVC010,0.40,VWS V14.01,2013-09-15 15:42:00,
2013-09-15 10:47:00,60.3,57.0,29.93,NE,49,2.0,11.0,89,0.01,,OVC010,0.40,VWS V14.01,2013-09-15 15:47:00,
2013-09-15 10:52:00,60.2,57.0,29.93,NE,48,0.0,11.0,89,0.01,,OVC010,0.40,VWS V14.01,2013-09-15 15:52:00,
2013-09-15 10:57:00,60.0,56.1,29.93,NE,51,2.0,11.0,87,0.01,,OVC014,0.40,VWS V14.01,2013-09-15 15:57:00,
2013-09-15 11:02:00,59.9,56.3,29.94,NNE,16,3.0,5.0,88,0.00,,OVC014,0.40,VWS V14.01,2013-09-15 16:02:00,
2013-09-15 11:07:00,59.9,56.0,29.94,North,351,2.0,11.0,87,0.00,,OVC014,0.40,VWS V14.01,2013-09-15 16:07:00,
2013-09-15 11:12:00,59.9,56.3,29.95,NW,319,1.0,13.0,88,0.00,,OVC014,0.40,VWS V14.01,2013-09-15 16:12:00,
2013-09-15 11:17:00,59.9,56.3,29.95,NE,50,3.0,13.0,88,0.00,,OVC014,0.40,VWS V14.01,2013-09-15 16:17:00,
2013-09-15 11:22:00,60.0,56.1,29.95,NNE,26,0.0,13.0,87,0.00,,OVC014,0.40,VWS V14.01,2013-09-15 16:22:00,
2013-09-15 11:27:00,60.1,55.9,29.95,ESE,113,4.0,13.0,86,0.00,,OVC014,0.40,VWS V14.01,2013-09-15 16:27:00,
2013-09-15 11:32:00,60.4,56.5,29.96,NE,51,1.0,3.0,87,0.00,,OVC014,0.40,VWS V14.01,2013-09-15 16:32:00,
2013-09-15 11:37:00,60.5,56.3,29.97,NE,46,0.0,8.0,86,0.00,,OVC014,0.40,VWS V14.01,2013-09-15 16:37:00,
2013-09-15 11:42:00,60.7,56.5,29.97,NE,50,2.0,8.0,86,0.00,,OVC016,0.40,VWS V14.01,2013-09-15 16:42:00,
2013-09-15 11:47:00,61.1,56.9,29.97,ENE,62,2.0,8.0,86,0.00,,OVC016,0.40,VWS V14.01,2013-09-15 16:47:00,
2013-09-15 11:52:00,61.2,56.7,29.97,ENE,59,3.0,8.0,85,0.00,,OVC016,0.40,VWS V14.01,2013-09-15 16:52:00,
2013-09-15 11:57:00,61.1,56.6,29.98,ENE,58,0.0,8.0,85,0.00,,OVC016,0.40,VWS V14.01,2013-09-15 16:57:00,
2013-09-15 12:02:00,61.0,56.1,29.98,NNE,19,0.0,7.0,84,0.00,,OVC018,0.40,VWS V14.01,2013-09-15 17:02:00,
2013-09-15 12:07:00,60.9,55.7,29.98,NNE,16,1.0,7.0,83,0.00,,OVC018,0.40,VWS V14.01,2013-09-15 17:07:00,
2013-09-15 12:12:00,60.8,55.6,29.98,NE,52,0.0,7.0,83,0.00,,OVC018,0.40,VWS V14.01,2013-09-15 17:12:00,
2013-09-15 12:17:00,60.9,56.0,29.99,NNE,13,1.0,9.0,84,0.00,,OVC018,0.40,VWS V14.01,2013-09-15 17:17:00,
2013-09-15 12:22:00,60.9,55.7,29.99,NNE,16,2.0,9.0,83,0.00,,OVC018,0.40,VWS V14.01,2013-09-15 17:22:00,
2013-09-15 12:27:00,60.9,55.4,30.00,NNE,20,0.0,11.0,82,0.00,,OVC018,0.40,VWS V14.01,2013-09-15 17:27:00,
2013-09-15 12:32:00,60.9,55.4,30.00,NE,41,4.0,9.0,82,0.00,,OVC018,0.40,VWS V14.01,2013-09-15 17:32:00,
2013-09-15 12:37:00,60.9,55.4,30.00,North,11,2.0,9.0,82,0.00,,OVC018,0.40,VWS V14.01,2013-09-15 17:37:00,
2013-09-15 12:42:00,61.0,55.8,30.00,NE,56,1.0,9.0,83,0.00,,OVC018,0.40,VWS V14.01,2013-09-15 17:42:00,
2013-09-15 12:47:00,61.0,55.5,30.01,North,7,0.0,9.0,82,0.00,,OVC018,0.40,VWS V14.01,2013-09-15 17:47:00,
2013-09-15 12:52:00,60.9,55.7,30.01,ENE,62,0.0,9.0,83,0.00,,OVC018,0.40,VWS V14.01,2013-09-15 17:52:00,
2013-09-15 12:57:00,60.9,55.7,30.01,NE,51,1.0,14.0,83,0.00,,OVC018,0.40,VWS V14.01,2013-09-15 17:57:00,
2013-09-15 13:02:00,60.9,55.4,30.01,NNE,27,0.0,3.0,82,0.00,,OVC019,0.40,VWS V14.01,2013-09-15 18:02:00,
2013-09-15 13:07:00,61.1,55.6,30.01,NW,308,0.0,10.0,82,0.00,,OVC019,0.40,VWS V14.01,2013-09-15 18:07:00,
2013-09-15 13:12:00,61.3,55.8,30.02,NE,41,0.0,10.0,82,0.00,,OVC019,0.40,VWS V14.01,2013-09-15 18:12:00,
2013-09-15 13:17:00,61.4,55.5,30.02,NE,39,1.0,10.0,81,0.00,,OVC019,0.40,VWS V14.01,2013-09-15 18:17:00,
2013-09-15 13:22:00,61.4,55.9,30.02,NNE,31,0.0,10.0,82,0.00,,OVC019,0.40,VWS V14.01,2013-09-15 18:22:00,
2013-09-15 13:27:00,61.5,56.0,30.02,NE,50,2.0,10.0,82,0.00,,OVC019,0.40,VWS V14.01,2013-09-15 18:27:00,
2013-09-15 13:32:00,61.6,55.4,30.02,WNW,284,0.0,6.0,80,0.00,,OVC019,0.40,VWS V14.01,2013-09-15 18:32:00,
2013-09-15 13:37:00,61.5,55.6,30.03,NE,54,1.0,9.0,81,0.00,,OVC019,0.40,VWS V14.01,2013-09-15 18:37:00,
2013-09-15 13:42:00,61.7,55.8,30.03,NNE,26,1.0,9.0,81,0.00,,OVC019,0.40,VWS V14.01,2013-09-15 18:42:00,
2013-09-15 13:47:00,61.8,55.9,30.03,NNE,32,0.0,9.0,81,0.00,,OVC019,0.40,VWS V14.01,2013-09-15 18:47:00,
2013-09-15 13:52:00,61.9,55.7,30.03,NE,41,1.0,9.0,80,0.00,,OVC019,0.40,VWS V14.01,2013-09-15 18:52:00,
2013-09-15 13:57:00,61.9,55.7,30.04,NE,39,1.0,9.0,80,0.00,,OVC019,0.40,VWS V14.01,2013-09-15 18:57:00,
2013-09-15 14:02:00,62.0,55.8,30.04,ENE,62,2.0,8.0,80,0.00,,OVC021,0.40,VWS V14.01,2013-09-15 19:02:00,
2013-09-15 14:07:00,62.1,55.5,30.04,NE,52,8.0,8.0,79,0.00,,OVC021,0.40,VWS V14.01,2013-09-15 19:07:00,
2013-09-15 14:12:00,62.1,55.5,30.04,NNE,26,2.0,9.0,79,0.00,,OVC021,0.40,VWS V14.01,2013-09-15 19:12:00,
2013-09-15 14:17:00,62.1,55.9,30.04,ENE,68,4.0,9.0,80,0.00,,OVC021,0.40,VWS V14.01,2013-09-15 19:17:00,
2013-09-15 14:18:00,62.1,56.2,30.04,ENE,67,0.0,9.0,81,0.00,,OVC021,0.40,VWS V14.01,2013-09-15 19:18:00,
2013-09-15 14:23:00,62.1,55.9,30.04,NE,36,0.0,9.0,80,0.00,,OVC021,0.40,VWS V14.01,2013-09-15 19:23:00,
2013-09-15 14:28:00,62.3,56.1,30.04,NNE,13,2.0,9.0,80,0.00,,OVC021,0.40,VWS V14.01,2013-09-15 19:28:00,
2013-09-15 14:33:00,62.3,55.7,30.04,North,11,2.0,3.0,79,0.00,,OVC021,0.40,VWS V14.01,2013-09-15 19:33:00,
2013-09-15 14:38:00,62.4,55.8,30.04,WNW,290,0.0,8.0,79,0.00,,OVC021,0.40,VWS V14.01,2013-09-15 19:38:00,
2013-09-15 14:43:00,62.7,55.8,30.04,NNW,338,1.0,9.0,78,0.00,,OVC021,0.40,VWS V14.01,2013-09-15 19:43:00,
2013-09-15 14:48:00,62.9,55.6,30.05,NE,48,1.0,9.0,77,0.00,,OVC021,0.40,VWS V14.01,2013-09-15 19:48:00,
2013-09-15 14:53:00,62.8,55.8,30.05,NE,37,2.0,15.0,78,0.00,,OVC021,0.40,VWS V14.01,2013-09-15 19:53:00,
2013-09-15 14:58:00,62.6,56.0,30.05,ENE,68,1.0,15.0,79,0.00,,OVC023,0.40,VWS V14.01,2013-09-15 19:58:00,
2013-09-15 15:03:00,62.6,55.7,30.05,ENE,65,1.0,7.0,78,0.00,,OVC023,0.40,VWS V14.01,2013-09-15 20:03:00,
2013-09-15 15:08:00,62.8,55.8,30.05,NNE,23,1.0,10.0,78,0.00,,OVC023,0.40,VWS V14.01,2013-09-15 20:08:00,
2013-09-15 15:13:00,63.2,56.2,30.05,NNE,18,4.0,10.0,78,0.00,,OVC023,0.40,VWS V14.01,2013-09-15 20:13:00,
2013-09-15 15:18:00,63.2,55.9,30.05,NNE,31,0.0,10.0,77,0.00,,OVC023,0.40,VWS V14.01,2013-09-15 20:18:00,
2013-09-15 15:23:00,63.2,55.9,30.06,NE,43,5.0,10.0,77,0.00,,OVC023,0.40,VWS V14.01,2013-09-15 20:23:00,
2013-09-15 15:28:00,63.3,56.0,30.06,North,352,1.0,10.0,77,0.00,,OVC023,0.40,VWS V14.01,2013-09-15 20:28:00,
2013-09-15 15:33:00,63.5,55.4,30.06,North,5,3.0,5.0,75,0.00,,OVC023,0.40,VWS V14.01,2013-09-15 20:33:00,
2013-09-15 15:38:00,63.7,55.3,30.06,ESE,108,2.0,7.0,74,0.00,,OVC023,0.40,VWS V14.01,2013-09-15 20:38:00,
2013-09-15 15:43:00,63.7,55.3,30.06,NE,52,0.0,8.0,74,0.00,,OVC023,0.40,VWS V14.01,2013-09-15 20:43:00,
2013-09-15 15:48:00,63.6,55.5,30.07,NNE,23,0.0,8.0,75,0.00,,OVC023,0.40,VWS V14.01,2013-09-15 20:48:00,
2013-09-15 15:53:00,63.5,56.2,30.07,North,1,3.0,9.0,77,0.00,,OVC023,0.40,VWS V14.01,2013-09-15 20:53:00,
2013-09-15 15:58:00,63.7,56.0,30.07,North,356,1.0,9.0,76,0.00,,OVC023,0.40,VWS V14.01,2013-09-15 20:58:00,
2013-09-15 16:03:00,63.9,56.2,30.07,NNW,329,6.0,7.0,76,0.00,,OVC029,0.40,VWS V14.01,2013-09-15 21:03:00,
2013-09-15 16:08:00,63.6,55.9,30.07,North,360,1.0,11.0,76,0.00,,OVC029,0.40,VWS V14.01,2013-09-15 21:08:00,
2013-09-15 16:13:00,63.3,56.0,30.07,NNW,345,2.0,15.0,77,0.00,,OVC029,0.40,VWS V14.01,2013-09-15 21:13:00,
2013-09-15 16:18:00,63.4,55.0,30.07,ENE,77,1.0,15.0,74,0.00,,OVC029,0.40,VWS V14.01,2013-09-15 21:18:00,
2013-09-15 16:23:00,63.8,55.4,30.08,NE,53,2.0,15.0,74,0.00,,OVC029,0.40,VWS V14.01,2013-09-15 21:23:00,
2013-09-15 16:28:00,63.9,55.5,30.08,North,11,6.0,15.0,74,0.00,,OVC029,0.40,VWS V14.01,2013-09-15 21:28:00,
2013-09-15 16:33:00,63.8,55.0,30.08,North,356,5.0,5.0,73,0.00,,OVC029,0.40,VWS V14.01,2013-09-15 21:33:00,
2013-09-15 16:38:00,63.6,54.8,30.08,ENE,70,0.0,7.0,73,0.00,,OVC031,0.40,VWS V14.01,2013-09-15 21:38:00,
2013-09-15 16:43:00,63.4,55.0,30.09,NNE,30,3.0,7.0,74,0.00,,OVC031,0.40,VWS V14.01,2013-09-15 21:43:00,
2013-09-15 16:48:00,63.4,55.0,30.09,NE,40,0.0,10.0,74,0.00,,OVC031,0.40,VWS V14.01,2013-09-15 21:48:00,
2013-09-15 16:53:00,63.3,55.2,30.09,NNE,27,1.0,10.0,75,0.00,,OVC031,0.40,VWS V14.01,2013-09-15 21:53:00,
2013-09-15 16:58:00,63.4,55.3,30.09,NNE,32,2.0,10.0,75,0.00,,OVC031,0.40,VWS V14.01,2013-09-15 21:58:00,
2013-09-15 17:03:00,63.3,55.6,30.09,NE,46,1.0,8.0,76,0.00,,OVC031,0.40,VWS V14.01,2013-09-15 22:03:00,
2013-09-15 17:08:00,63.3,55.2,30.10,North,358,5.0,9.0,75,0.00,,OVC031,0.40,VWS V14.01,2013-09-15 22:08:00,
2013-09-15 17:13:00,63.3,54.5,30.10,NE,40,3.0,9.0,73,0.00,,OVC031,0.40,VWS V14.01,2013-09-15 22:13:00,
2013-09-15 17:18:00,63.4,54.2,30.10,NNE,25,2.0,9.0,72,0.00,,OVC031,0.40,VWS V14.01,2013-09-15 22:18:00,
2013-09-15 17:23:00,63.5,54.7,30.10,NNE,19,1.0,9.0,73,0.00,,OVC031,0.40,VWS V14.01,2013-09-15 22:23:00,
2013-09-15 17:28:00,63.7,54.5,30.10,NNW,347,1.0,9.0,72,0.00,,OVC031,0.40,VWS V14.01,2013-09-15 22:28:00,
2013-09-15 17:33:00,63.7,54.9,30.10,NE,40,0.0,2.0,73,0.00,,OVC031,0.40,VWS V14.01,2013-09-15 22:33:00,
2013-09-15 17:38:00,63.5,55.1,30.10,NE,41,0.0,6.0,74,0.00,,OVC031,0.40,VWS V14.01,2013-09-15 22:38:00,
2013-09-15 17:43:00,63.3,54.9,30.10,NE,36,0.0,6.0,74,0.00,,OVC031,0.40,VWS V14.01,2013-09-15 22:43:00,
2013-09-15 17:48:00,63.3,55.2,30.11,NNE,27,0.0,6.0,75,0.00,,OVC031,0.40,VWS V14.01,2013-09-15 22:48:00,
2013-09-15 17:53:00,63.2,55.5,30.11,North,1,7.0,7.0,76,0.00,,OVC031,0.40,VWS V14.01,2013-09-15 22:53:00,
2013-09-15 17:58:00,63.1,55.4,30.11,East,94,0.0,8.0,76,0.00,,OVC034,0.40,VWS V14.01,2013-09-15 22:58:00,
2013-09-15 18:03:00,63.0,55.7,30.11,NE,51,0.0,1.0,77,0.00,,OVC034,0.40,VWS V14.01,2013-09-15 23:03:00,
2013-09-15 18:08:00,62.9,55.6,30.11,North,5,2.0,3.0,77,0.00,,OVC034,0.40,VWS V14.01,2013-09-15 23:08:00,
2013-09-15 18:13:00,62.9,55.6,30.12,NNE,32,0.0,5.0,77,0.00,,OVC034,0.40,VWS V14.01,2013-09-15 23:13:00,
2013-09-15 18:18:00,62.8,55.8,30.12,NNE,20,1.0,5.0,78,0.00,,OVC034,0.40,VWS V14.01,2013-09-15 23:18:00,
2013-09-15 18:23:00,62.7,55.8,30.12,NNE,27,0.0,5.0,78,0.00,,OVC034,0.40,VWS V14.01,2013-09-15 23:23:00,
2013-09-15 18:28:00,62.6,55.7,30.12,NNE,32,0.0,5.0,78,0.00,,OVC034,0.40,VWS V14.01,2013-09-15 23:28:00,
2013-09-15 18:33:00,62.5,55.6,30.12,NE,34,0.0,3.0,78,0.00,,OVC034,0.40,VWS V14.01,2013-09-15 23:33:00,
2013-09-15 18:38:00,62.4,55.5,30.13,NE,36,1.0,3.0,78,0.00,,OVC034,0.40,VWS V14.01,2013-09-15 23:38:00,
2013-09-15 18:43:00,62.4,55.8,30.13,NE,49,0.0,3.0,79,0.00,,OVC034,0.40,VWS V14.01,2013-09-15 23:43:00,
2013-09-15 18:48:00,62.4,55.8,30.13,NNW,341,0.0,3.0,79,0.00,,OVC034,0.40,VWS V14.01,2013-09-15 23:48:00,
2013-09-15 18:53:00,62.3,55.7,30.13,North,9,0.0,3.0,79,0.00,,OVC034,0.40,VWS V14.01,2013-09-15 23:53:00,
2013-09-15 18:58:00,62.2,56.0,30.13,North,352,0.0,3.0,80,0.00,,OVC034,0.40,VWS V14.01,2013-09-15 23:58:00,
2013-09-15 19:03:00,62.1,56.2,30.14,North,5,0.0,2.0,81,0.00,,OVC036,0.40,VWS V14.01,2013-09-16 00:03:00,
2013-09-15 19:08:00,62.0,56.1,30.14,NE,46,0.0,2.0,81,0.00,,OVC036,0.40,VWS V14.01,2013-09-16 00:08:00,
2013-09-15 19:13:00,61.8,55.9,30.14,ENE,62,2.0,2.0,81,0.00,,OVC036,0.40,VWS V14.01,2013-09-16 00:13:00,
2013-09-15 19:18:00,61.7,55.8,30.14,North,356,0.0,6.0,81,0.00,,OVC036,0.40,VWS V14.01,2013-09-16 00:18:00,
2013-09-15 19:23:00,61.6,56.1,30.14,North,5,0.0,6.0,82,0.00,,OVC036,0.40,VWS V14.01,2013-09-16 00:23:00,
2013-09-15 19:28:00,61.6,56.1,30.14,North,351,8.0,8.0,82,0.00,,OVC036,0.40,VWS V14.01,2013-09-16 00:28:00,
2013-09-15 19:33:00,61.5,56.0,30.14,North,5,5.0,6.0,82,0.00,,OVC036,0.40,VWS V14.01,2013-09-16 00:33:00,
2013-09-15 19:38:00,61.4,56.2,30.14,NNE,23,0.0,6.0,83,0.00,,OVC036,0.40,VWS V14.01,2013-09-16 00:38:00,
2013-09-15 19:43:00,61.2,56.0,30.15,WNW,298,2.0,6.0,83,0.00,,OVC036,0.40,VWS V14.01,2013-09-16 00:43:00,
2013-09-15 19:48:00,61.2,56.0,30.15,NNE,19,2.0,6.0,83,0.00,,OVC036,0.40,VWS V14.01,2013-09-16 00:48:00,
2013-09-15 19:53:00,61.1,55.9,30.15,North,359,0.0,6.0,83,0.00,,OVC036,0.40,VWS V14.01,2013-09-16 00:53:00,
2013-09-15 19:58:00,60.9,55.7,30.15,NNW,348,0.0,6.0,83,0.00,,BKN038,0.40,VWS V14.01,2013-09-16 00:58:00,
2013-09-15 20:03:00,60.6,55.8,30.15,NNE,26,0.0,3.0,84,0.00,,BKN038,0.40,VWS V14.01,2013-09-16 01:03:00,
2013-09-15 20:08:00,60.2,55.3,30.16,North,356,0.0,3.0,84,0.00,,BKN038,0.40,VWS V14.01,2013-09-16 01:08:00,
2013-09-15 20:13:00,59.9,55.4,30.16,North,354,0.0,4.0,85,0.00,,BKN038,0.40,VWS V14.01,2013-09-16 01:13:00,
2013-09-15 20:18:00,59.6,55.1,30.16,NNE,32,1.0,4.0,85,0.00,,BKN038,0.40,VWS V14.01,2013-09-16 01:18:00,
2013-09-15 20:23:00,59.4,55.2,30.16,NE,46,2.0,4.0,86,0.00,,BKN038,0.40,VWS V14.01,2013-09-16 01:23:00,
2013-09-15 20:28:00,59.2,55.0,30.17,NNE,20,2.0,4.0,86,0.00,,BKN038,0.40,VWS V14.01,2013-09-16 01:28:00,
2013-09-15 20:33:00,59.1,54.9,30.17,North,6,1.0,2.0,86,0.00,,BKN038,0.40,VWS V14.01,2013-09-16 01:33:00,
2013-09-15 20:38:00,59.0,54.8,30.17,North,352,0.0,4.0,86,0.00,,BKN038,0.40,VWS V14.01,2013-09-16 01:38:00,
2013-09-15 20:43:00,58.9,55.0,30.17,NNE,13,0.0,4.0,87,0.00,,BKN038,0.40,VWS V14.01,2013-09-16 01:43:00,
2013-09-15 20:48:00,58.7,54.8,30.18,NNE,25,0.0,4.0,87,0.00,,BKN038,0.40,VWS V14.01,2013-09-16 01:48:00,
2013-09-15 20:53:00,58.5,54.7,30.18,NNW,345,0.0,4.0,87,0.00,,BKN038,0.40,VWS V14.01,2013-09-16 01:53:00,
2013-09-15 20:58:00,58.4,54.9,30.18,North,356,0.0,4.0,88,0.00,,CLR,0.40,VWS V14.01,2013-09-16 01:58:00,
2013-09-15 21:03:00,58.3,54.8,30.18,ESE,115,0.0,1.0,88,0.00,,CLR,0.40,VWS V14.01,2013-09-16 02:03:00,
2013-09-15 21:08:00,58.2,54.7,30.19,NNW,330,0.0,4.0,88,0.00,,CLR,0.40,VWS V14.01,2013-09-16 02:08:00,
2013-09-15 21:13:00,58.1,54.6,30.19,North,358,0.0,4.0,88,0.00,,CLR,0.40,VWS V14.01,2013-09-16 02:13:00,
2013-09-15 21:18:00,57.9,54.4,30.18,ENE,63,0.0,4.0,88,0.00,,CLR,0.40,VWS V14.01,2013-09-16 02:18:00,
2013-09-15 21:23:00,57.6,54.1,30.19,ENE,64,0.0,4.0,88,0.00,,CLR,0.40,VWS V14.01,2013-09-16 02:23:00,
2013-09-15 21:28:00,57.3,54.1,30.19,ENE,62,0.0,4.0,89,0.00,,CLR,0.40,VWS V14.01,2013-09-16 02:28:00,
2013-09-15 21:33:00,57.1,54.2,30.19,NE,40,0.0,1.0,90,0.00,,CLR,0.40,VWS V14.01,2013-09-16 02:33:00,
2013-09-15 21:38:00,57.0,54.4,30.19,NNW,333,0.0,1.0,91,0.00,,CLR,0.40,VWS V14.01,2013-09-16 02:38:00,
2013-09-15 21:43:00,56.9,54.3,30.19,NNW,333,0.0,1.0,91,0.00,,CLR,0.40,VWS V14.01,2013-09-16 02:43:00,
2013-09-15 21:48:00,56.8,54.2,30.19,NW,322,0.0,1.0,91,0.00,,CLR,0.40,VWS V14.01,2013-09-16 02:48:00,
2013-09-15 21:53:00,56.8,54.2,30.19,NW,325,0.0,1.0,91,0.00,,CLR,0.40,VWS V14.01,2013-09-16 02:53:00,
2013-09-15 21:58:00,56.8,54.2,30.19,North,360,0.0,2.0,91,0.00,,CLR,0.40,VWS V14.01,2013-09-16 02:58:00,
2013-09-15 22:03:00,57.0,54.7,30.19,North,3,0.0,2.0,92,0.00,,CLR,0.40,VWS V14.01,2013-09-16 03:03:00,
2013-09-15 22:08:00,57.0,54.7,30.19,NNE,20,0.0,3.0,92,0.00,,CLR,0.40,VWS V14.01,2013-09-16 03:08:00,
2013-09-15 22:13:00,57.0,54.7,30.20,North,11,6.0,6.0,92,0.00,,CLR,0.40,VWS V14.01,2013-09-16 03:13:00,
2013-09-15 22:18:00,57.2,54.6,30.19,NNE,18,0.0,6.0,91,0.00,,CLR,0.40,VWS V14.01,2013-09-16 03:18:00,
2013-09-15 22:23:00,57.2,54.3,30.20,NNE,27,0.0,6.0,90,0.00,,CLR,0.40,VWS V14.01,2013-09-16 03:23:00,
2013-09-15 22:28:00,57.1,54.2,30.20,NNE,22,0.0,6.0,90,0.00,,BKN032,0.40,VWS V14.01,2013-09-16 03:28:00,
2013-09-15 22:33:00,56.8,53.9,30.20,NNE,22,0.0,0.0,90,0.00,,BKN032,0.40,VWS V14.01,2013-09-16 03:33:00,
2013-09-15 22:38:00,56.6,53.7,30.20,NNE,26,0.0,1.0,90,0.00,,BKN032,0.40,VWS V14.01,2013-09-16 03:38:00,
2013-09-15 22:43:00,56.3,53.4,30.21,NNE,23,1.0,3.0,90,0.00,,BKN032,0.40,VWS V14.01,2013-09-16 03:43:00,
2013-09-15 22:48:00,56.2,53.6,30.21,NE,51,0.0,3.0,91,0.00,,BKN032,0.40,VWS V14.01,2013-09-16 03:48:00,
2013-09-15 22:53:00,55.9,53.3,30.21,NE,46,0.0,3.0,91,0.00,,BKN032,0.40,VWS V14.01,2013-09-16 03:53:00,
2013-09-15 22:58:00,55.7,53.1,30.21,NNE,26,0.0,3.0,91,0.00,,CLR,0.40,VWS V14.01,2013-09-16 03:58:00,
2013-09-15 23:01:00,55.6,53.0,30.21,NNE,26,0.0,0.0,91,0.00,,CLR,0.40,VWS V14.01,2013-09-16 04:01:00,
2013-09-15 23:06:00,55.3,53.0,30.21,NE,55,0.0,1.0,92,0.00,,CLR,0.40,VWS V14.01,2013-09-16 04:06:00,
2013-09-15 23:11:00,55.2,52.9,30.21,NE,44,0.0,7.0,92,0.00,,CLR,0.40,VWS V14.01,2013-09-16 04:11:00,
2013-09-15 23:16:00,55.0,52.7,30.21,NE,51,0.0,7.0,92,0.00,,CLR,0.40,VWS V14.01,2013-09-16 04:16:00,
2013-09-15 23:21:00,54.9,52.6,30.22,NNE,23,1.0,7.0,92,0.00,,CLR,0.40,VWS V14.01,2013-09-16 04:21:00,
2013-09-15 23:26:00,54.8,52.8,30.22,North,11,0.0,7.0,93,0.00,,CLR,0.40,VWS V14.01,2013-09-16 04:26:00,
2013-09-15 23:31:00,54.8,52.8,30.22,ENE,71,0.0,0.0,93,0.00,,CLR,0.40,VWS V14.01,2013-09-16 04:31:00,
2013-09-15 23:36:00,54.7,52.7,30.22,NNE,29,0.0,1.0,93,0.00,,CLR,0.40,VWS V14.01,2013-09-16 04:36:00,
2013-09-15 23:41:00,54.7,52.7,30.22,NE,34,0.0,2.0,93,0.00,,CLR,0.40,VWS V14.01,2013-09-16 04:41:00,
2013-09-15 23:46:00,54.7,52.7,30.22,East,79,0.0,2.0,93,0.00,,CLR,0.40,VWS V14.01,2013-09-16 04:46:00,
2013-09-15 23:51:00,54.6,52.6,30.22,NE,46,0.0,2.0,93,0.00,,CLR,0.40,VWS V14.01,2013-09-16 04:51:00,
2013-09-15 23:56:00,54.5,52.5,30.22,North,9,0.0,5.0,93,0.00,,CLR,0.40,VWS V14.01,2013-09-16 04:56:00,